This demonstration page uses our WeatherBlox Daily Observations layout. Learn more.

Left ArrowRight Arrow

40.92945, -100.16068

Hourly Observations for April 22, 2016

Temp ( °F °C ) Dew Point ( °F °C ) Humidity (%) Winds ( mph kmh ) Pressure ( in mb ) Visibility ( mi km ) Precip ( " mm )
12:15 am 00:15 Clear 47 8.2 39 3.8 74 74 Calm 30.12 1020 10 16 N/A
12:35 am 00:35 Clear 48 8.7 38 3.4 70 70 Calm 30.12 1020 10 16 N/A
12:55 am 00:55 Clear 46 7.7 39 3.8 77 77 NNE 5 7 30.12 1020 10 16 N/A
1:15 am 01:15 Clear 43 6.2 38 3.1 81 81 NNW 6 9 30.15 1021 10 16 N/A
1:35 am 01:35 Clear 43 6 38 3.3 83 83 N 6 9 30.15 1021 10 16 N/A
1:55 am 01:55 Clear 43 6.3 38 3.4 82 82 N 5 7 30.15 1021 10 16 N/A
2:15 am 02:15 Clear 41 4.8 36 2.1 83 83 Calm 30.15 1021 10 16 N/A
2:35 am 02:35 Clear 40 4.5 36 2.3 86 86 NNW 5 7 30.18 1022 10 16 N/A
2:55 am 02:55 Clear 39 3.9 36 2 88 88 N 3 6 30.18 1022 10 16 N/A
3:15 am 03:15 Clear 39 4 36 2.2 88 88 WNW 6 9 30.18 1022 10 16 N/A
3:35 am 03:35 Clear 38 3.5 36 2 90 90 W 8 13 30.18 1022 10 16 N/A
3:55 am 03:55 Clear 38 3.2 35 1.7 90 90 WNW 7 11 30.18 1022 10 16 N/A
4:15 am 04:15 Clear 38 3.3 35 1.7 89 89 WNW 7 11 30.18 1022 10 16 N/A
4:35 am 04:35 Clear 38 3.2 35 1.6 89 89 WNW 7 11 30.18 1022 10 16 N/A
4:55 am 04:55 Clear 38 3.2 35 1.8 91 91 WNW 6 9 30.21 1023 10 16 N/A
5:15 am 05:15 Clear 37 2.9 35 1.6 91 91 WNW 6 9 30.21 1023 10 16 N/A
5:35 am 05:35 Clear 36 2.4 34 1.1 91 91 WNW 5 7 30.21 1023 10 16 N/A
5:55 am 05:55 Clear 36 2.3 34 1.1 92 92 WNW 6 9 30.21 1023 10 16 N/A
6:15 am 06:15 Clear 36 2.3 34 0.9 91 91 NW 5 7 30.21 1023 10 16 N/A
6:35 am 06:35 Clear 36 2 33 0.7 91 91 NW 3 6 30.21 1023 10 16 N/A
6:55 am 06:55 Sunny 36 2 33 0.6 91 91 WNW 3 6 30.27 1025 10 16 N/A
7:15 am 07:15 Sunny 36 2 33 0.6 91 91 Calm 30.27 1025 10 16 N/A
7:35 am 07:35 Sunny 37 2.7 35 1.4 91 91 NW 3 6 30.24 1024 10 16 N/A
7:55 am 07:55 Sunny 39 3.9 36 2.3 89 89 Calm 30.24 1024 10 16 N/A
8:15 am 08:15 Sunny 42 5.5 38 3.5 87 87 Calm 30.21 1023 10 16 N/A
8:35 am 08:35 Sunny 44 6.4 39 4.1 85 85 Calm 30.21 1023 10 16 N/A
8:55 am 08:55 Sunny 46 7.6 41 5.2 85 85 Calm 30.21 1023 10 16 N/A
9:15 am 09:15 Sunny 48 9.1 42 5.6 79 79 Calm 30.21 1023 10 16 N/A
9:35 am 09:35 Sunny 51 10.6 42 5.6 71 71 Calm 30.18 1022 10 16 N/A
9:55 am 09:55 Sunny 53 11.5 41 5 65 65 SSE 3 6 30.15 1021 10 16 N/A
10:15 am 10:15 Sunny 54 12 41 5.1 63 63 S 3 6 30.15 1021 10 16 N/A
10:35 am 10:35 Sunny 55 12.9 42 5.5 61 61 SSE 6 9 30.15 1021 10 16 N/A
10:55 am 10:55 Sunny 57 13.7 42 5.6 58 58 SSE 5 7 30.15 1021 10 16 N/A
11:15 am 11:15 Sunny 58 14.7 43 6.2 57 57 SE 5 7 30.12 1020 10 16 N/A
11:35 am 11:35 Sunny 59 15 43 6.1 56 56 SSE 6 9 30.12 1020 10 16 N/A
11:55 am 11:55 Sunny 61 16 41 5.1 49 49 S 5 7 30.12 1020 10 16 N/A
12:15 pm 12:15 Sunny 62 16.6 41 4.9 46 46 S 6 9 30.12 1020 10 16 N/A
12:35 pm 12:35 Sunny 63 17.2 40 4.5 43 43 SSW 5 7 30.12 1020 10 16 N/A
12:55 pm 12:55 Sunny 64 17.8 42 5.3 44 44 S 9 15 30.12 1020 10 16 N/A
1:15 pm 13:15 Sunny 65 18.5 43 6.2 45 45 S 7 11 30.06 1018 10 16 N/A
1:35 pm 13:35 Sunny 65 18.6 41 5.1 41 41 S 8 13 30.06 1018 10 16 N/A
1:55 pm 13:55 Sunny 66 19.1 43 5.9 42 42 SSE 7 11 30.03 1017 10 16 N/A
2:15 pm 14:15 Sunny 67 19.2 42 5.5 41 41 S 9 15 30.03 1017 10 16 N/A
2:35 pm 14:35 Sunny 68 20 44 6.5 42 42 SSE 10 17 30.03 1017 10 16 N/A
2:55 pm 14:55 Sunny 68 20 42 5.6 39 39 SSE 8 13 30.03 1017 10 16 N/A
3:15 pm 15:15 Sunny 69 20.3 43 6.2 40 40 SSE 8 13 30.00 1016 10 16 N/A
3:35 pm 15:35 Sunny 70 21 44 6.5 39 39 SSE 8 13 29.97 1015 10 16 N/A
3:55 pm 15:55 Sunny 70 21 42 5.6 37 37 SSE 9 15 29.97 1015 10 16 N/A
4:15 pm 16:15 Sunny 70 21.1 44 6.5 39 39 SSE 8 13 29.94 1014 10 16 N/A
4:35 pm 16:35 Sunny 71 21.5 44 6.7 38 38 S 10 17 29.94 1014 10 16 N/A
4:55 pm 16:55 Sunny 71 21.6 45 7.1 39 39 S 15 24 29.94 1014 10 16 N/A
5:15 pm 17:15 Sunny 71 21.5 44 6.7 38 38 SSE 14 22 29.94 1014 10 16 N/A
5:35 pm 17:35 Sunny 71 21.6 45 7 39 39 S 15 24 29.94 1014 10 16 N/A
5:55 pm 17:55 Sunny 71 21.4 43 6.3 38 38 SSE 13 20 29.94 1014 10 16 N/A
6:15 pm 18:15 Sunny 70 21 43 5.9 38 38 SSE 16 26 29.94 1014 10 16 N/A
6:35 pm 18:35 Sunny 70 21 44 6.5 39 39 S 10 17 29.94 1014 10 16 N/A
6:55 pm 18:55 Sunny 69 20.5 43 6.1 39 39 SSE 14 22 29.94 1014 10 16 N/A
7:15 pm 19:15 Sunny 68 20 44 6.9 43 43 SSE 16 26 29.97 1015 10 16 N/A
7:35 pm 19:35 Sunny 67 19.3 45 7.2 46 46 SSE 14 22 29.97 1015 10 16 N/A
7:55 pm 19:55 Sunny 65 18.5 46 7.5 49 49 SSE 13 20 29.97 1015 10 16 N/A
8:15 pm 20:15 Sunny 63 17.2 46 7.7 54 54 SSE 10 17 29.97 1015 10 16 N/A
8:35 pm 20:35 Clear 61 16 46 8 59 59 SSE 9 15 30.00 1016 10 16 N/A
8:55 pm 20:55 Clear 59 15.2 46 8 62 62 SSE 10 17 30.00 1016 10 16 N/A
9:15 pm 21:15 Clear 60 15.7 46 7.7 59 59 SSE 12 19 30.00 1016 10 16 N/A
9:35 pm 21:35 Clear 59 15.2 46 7.5 60 60 SE 12 19 30.00 1016 10 16 N/A
9:55 pm 21:55 Clear 58 14.6 46 7.5 63 63 SE 12 19 30.00 1016 10 16 N/A
10:15 pm 22:15 Clear 58 14.4 44 6.9 61 61 SE 13 20 30.00 1016 10 16 N/A
10:35 pm 22:35 Clear 57 14.1 44 6.5 60 60 SSE 12 19 30.00 1016 10 16 N/A
10:55 pm 22:55 Clear 57 13.8 43 6.2 60 60 SE 13 20 30.00 1016 10 16 N/A
11:15 pm 23:15 Clear 56 13.4 43 6.1 62 62 SE 14 22 29.97 1015 10 16 N/A
11:35 pm 23:35 Clear 55 13 42 5.4 60 60 SE 14 22 30.00 1016 10 16 N/A
11:55 pm 23:55 Clear 55 13 42 5.5 61 61 SE 14 22 30.00 1016 10 16 N/A

Powered by AerisWeather